Home   Weather   Pamplona   Past weeks

Flag for Spain Past Weather in Pamplona, Spain — Yesterday and Last 2 Weeks

Now
50 °F

Cool.


Feels Like: 50 °F
Forecast: 41 / 75 °F
Wind: No wind

Location: Pamplona / Noain

Current Time: Apr 24, 2017 at 1:54:55 am

Latest Report: Apr 24, 2017 at 1:00 am


Visibility: N/A

Pressure: 30.04 "Hg

Humidity: 76%

Dew Point: 43 °F

Location of PamplonaLocation

Past Weather in Pamplona — Graph

°F

Pamplona Temperature Yesterday

Maximum temperature yesterday: 77 °F (at 4:00 pm)
Minimum temperature yesterday: 37 °F (at 6:30 am)
Average temperature yesterday: 58 °F

High & Low Weather Summary for the Past Weeks

 TemperatureHumidityPressure
High77 °F (Apr 10, 3:30 pm)100% (Apr 17, 4:00 am)30.36 "Hg (Apr 17, 4:00 am)
Low32 °F (Apr 20, 7:30 am)17% (Apr 22, 6:00 pm)30.01 "Hg (Apr 13, 4:00 pm)
Average55 °F61%30.18 "Hg
* Reported Apr 9 12:00 am — Apr 24 12:30 am, Pamplona, Weather by CustomWeather, © 2017

Note: Actual official high and low records may vary slightly from our data, if they occured in-between our weather recording intervals... More about our weather records

Advertising

Pamplona Weather History for the Previous 24 Hours

Scroll right to see more
 ConditionsComfort  
Time TempWeatherWind HumidityBarometerVisibility
12:30 am
Mon, Apr 24
54 °FCool.No wind67%30.04 "HgN/A
12:00 am54 °FClear.No wind67%30.07 "Hg10 mi
11:30 pm
Sun, Apr 23
55 °FClear.1 mph63%30.07 "Hg10 mi
10:30 pm59 °FClear.3 mph55%30.04 "Hg10 mi
10:00 pm61 °FClear.2 mph52%30.04 "Hg10 mi
9:30 pm63 °FPassing clouds.5 mph52%30.04 "HgN/A
9:00 pm63 °FClear.3 mph52%30.01 "Hg10 mi
8:30 pm68 °FPassing clouds.3 mph43%30.01 "HgN/A
8:00 pm70 °FPassing clouds.9 mph31%30.01 "HgN/A
7:30 pm72 °FSunny.13 mph31%30.01 "Hg10 mi
7:00 pm73 °FSunny.12 mph31%30.01 "Hg10 mi
6:30 pm75 °FPassing clouds.10 mph29%30.01 "HgN/A
6:00 pm77 °FSunny.2 mph21%30.01 "Hg10 mi
5:30 pm77 °FSunny.2 mph18%30.01 "Hg10 mi
5:00 pm77 °FSunny.No wind21%30.01 "Hg10 mi
4:30 pm77 °FSunny.1 mph17%30.01 "Hg10 mi
4:00 pm77 °FSunny.2 mph17%30.04 "Hg10 mi
3:30 pm75 °FPassing clouds.3 mph19%30.04 "HgN/A
3:00 pm75 °FSunny.2 mph24%30.04 "Hg10 mi
2:30 pm73 °FSunny.1 mph22%30.07 "Hg10 mi
2:00 pm73 °FSunny.2 mph25%30.07 "Hg10 mi
1:30 pm70 °FSunny.1 mph29%30.07 "Hg10 mi
1:00 pm70 °FSunny.No wind27%30.09 "Hg10 mi
12:30 pm66 °FSunny.1 mph40%30.09 "Hg10 mi
12:00 pm63 °FSunny.No wind45%30.09 "Hg10 mi
11:30 am63 °FSunny.1 mph45%30.09 "Hg10 mi
11:00 am59 °FSunny.No wind55%30.12 "Hg10 mi
10:30 am54 °FSunny.No wind63%30.12 "Hg10 mi
10:00 am52 °FSunny.No wind67%30.12 "Hg10 mi
9:30 am50 °FSunny.No wind67%30.12 "Hg10 mi
9:00 am48 °FSunny.No wind66%30.12 "Hg10 mi
8:30 am45 °FSunny.No wind76%30.12 "Hg10 mi
8:00 am41 °FSunny.No wind81%30.12 "Hg10 mi
7:30 am37 °FSunny.No wind87%30.12 "Hg10 mi
7:00 am39 °FClear.1 mph81%30.12 "Hg10 mi
6:30 am37 °FClear.1 mph87%30.12 "Hg10 mi
6:00 am39 °FClear.1 mph81%30.12 "Hg10 mi
5:30 am41 °FClear.No wind76%30.12 "Hg10 mi
4:30 am43 °FQuite cool.No wind76%30.12 "HgN/A
4:00 am41 °FQuite cool.1 mph81%30.12 "HgN/A
3:30 am43 °FQuite cool.2 mph76%30.12 "HgN/A
3:00 am43 °FQuite cool.1 mph76%30.12 "HgN/A
2:30 am43 °FQuite cool.1 mph76%30.12 "HgN/A
2:00 am45 °FQuite cool.1 mph71%30.15 "HgN/A
1:30 am46 °FCool.1 mph66%30.15 "HgN/A
1:00 am46 °FCool.2 mph66%30.12 "HgN/A
Weather by CustomWeather, © 2017

See weather overviewHow to use our weather pages